SCP
-0 -0 -0 -0 -0 -0 -0 -0 -0 -0 -0 -0 -0 -0 -0 -0 -0 0 0 0 0 0 0 0 0 0 0 -0 -0 -0 -0 0
-0 -0 -0 -0 -0 -0 -0 -0 -0 -0 -0 -0 -0 -0 -0 -0 0 0 0 0 0 0 0 0 0 0 0 0 -0 0 0 0
-0 -0 -0 -0 -0 -0 -0 -0 -0 -0 -0 -0 -0 -0 -0 -0 0 0 0 0 0 0 0 0 0 0 0 0 0 0 0 0
-0 -0 -0 -0 -0 -0 -0 -0 -0 -0 -0 -0 0 0 0 0 0 0 -0 -0 0 0 0 0 0 0 0 0 0 0 0 0
-0 -0 -0 -0 -0 -0 -0 -0 -0 -0 0 0 0 0 0 0 0 -0 -0 -0 -0 -0 -0 -0 -0 0 0 0 0 0 0 0
-0 -0 -0 -0 0 0 0 0 0 0 0 0 0 0 0 0 0 -0 -0 -0 -0 -0 -0 -0 -0 -0 0 0 0 0 0 0
-1 -0 -0 -0 -0 0 0 0 0 0 0 0 0 0 0 0 0 -0 -0 -0 -0 -0 -0 -0 -0 -0 -0 -0 0 0 0 0
-0 -0 -0 -0 0 0 0 0 0 0 0 0 0 0 0 0 0 -0 -0 -0 -0 -0 -0 -0 -0 -0 -0 -0 -0 0 0 0
-0 -0 -0 -0 -0 -0 0 0 0 0 0 0 0 0 0 0 0 0 0 0 0 0 0 0 -0 -0 -0 -0 -0 -0 0 0
-0 -0 -0 -0 -0 -0 -0 0 0 0 0 0 0 0 0 0 0 0 0 0 0 0 0 0 0 0 0 0 -0 -0 -0 0
-0 -0 -0 -0 -0 -0 0 0 0 0 0 0 0 0 0 0 0 0 0 0 0 0 0 0 0 0 0 0 0 0 0 0
0 0 -0 0 -0 -0 -0 -0 0 0 0 0 0 0 0 0 0 0 0 0 0 0 0 0 0 0 0 0 0 0 0 0
0 0 0 0 0 0 0 0 0 0 0 0 0 0 0 0 0 0 0 0 0 0 0 0 0 0 0 0 0 0 0 0
0 0 0 0 0 0 0 0 0 0 0 0 0 0 0 0 0 0 0 0 0 0 0 0 0 0 0 0 0 0 0 0
0 0 0 0 0 0 0 0 0 0 0 0 0 0 0 0 0 0 0 0 0 0 0 0 0 0 0 0 0 0 0 0
0 0 0 0 0 0 0 0 0 0 0 0 0 0 0 0 0 0 0 0 1 1 1 1 0 0 0 0 0 1 1 0
0 0 0 0 0 1 1 0 0 0 0 0 1 1 0 0 0 1 1 1 1 1 1 1 1 0 1 1 1 1 0 0
0 0 0 0 0 1 1 2 1 2 2 1 1 1 1 1 1 1 1 1 1 1 1 1 1 1 0 1 0 0 0 0
0 0 0 0 0 0 0 0 -0 0 0 1 1 0 0 0 0 1 0 1 1 1 1 1 0 0 0 0 0 0 0 0
Wind_Speed_500mb
55 50 46 41 38 35 32 29 27 26 26 24 23 23 22 21 21 22 23 24 24 24 24 24 23 25 25 25 26 27 28 29
54 50 47 43 39 35 32 29 28 28 27 26 24 23 22 21 20 19 19 19 21 21 19 18 16 17 18 16 14 15 16 19
52 51 47 43 39 35 33 31 29 28 27 25 24 23 21 20 19 17 17 15 16 16 16 14 11 9 9 9 10 10 11 11
55 52 49 46 41 35 32 30 30 28 26 24 23 21 19 18 17 16 15 14 12 12 12 10 8 3 3 3 6 6 8 9
58 56 53 49 46 41 37 33 29 26 26 25 24 22 20 18 17 15 15 14 12 11 11 9 7 4 4 5 5 8 10 10
61 62 59 53 47 43 39 35 31 30 28 26 25 24 22 18 17 16 15 15 13 12 11 10 8 5 5 9 9 9 10 12
63 65 60 54 49 45 40 38 37 35 33 31 28 25 22 21 19 17 16 14 12 10 9 7 6 5 1 4 9 11 11 14
58 61 58 56 52 50 47 45 44 41 37 35 30 26 25 24 22 20 18 15 12 10 8 7 6 4 2 1 3 7 10 14
53 52 57 60 59 57 55 50 47 43 40 37 32 30 30 26 24 22 20 18 17 15 11 8 5 5 4 3 2 5 12 15
45 50 60 60 61 61 58 53 50 44 40 36 34 35 32 28 25 23 20 23 21 17 14 11 12 12 12 11 11 8 12 18
41 47 53 55 59 59 57 56 52 48 41 41 40 38 35 32 28 26 24 25 24 20 18 19 19 23 23 17 18 18 16 18
44 47 52 52 55 52 52 56 56 49 48 44 42 40 37 34 30 29 29 27 25 25 26 25 25 27 23 21 22 21 18 20
47 50 49 50 52 51 53 53 56 56 53 48 45 41 38 34 32 31 29 26 28 32 30 31 23 23 23 22 23 25 25 26
49 53 51 46 46 48 56 54 55 55 53 51 46 43 35 30 30 29 28 27 26 29 36 34 24 26 25 29 29 27 30 31
45 50 49 45 42 38 41 45 50 51 47 50 48 40 35 29 26 32 31 32 30 33 33 30 28 26 28 29 34 36 33 33
39 43 47 48 48 41 33 35 38 39 42 43 42 40 39 41 37 39 36 33 32 35 34 33 32 33 36 34 38 36 34 31
22 24 29 36 36 36 28 21 24 31 37 37 38 45 48 42 45 46 30 30 29 31 35 35 38 37 43 41 38 24 16 18
8 11 7 4 6 12 21 8 10 16 21 17 17 23 26 32 34 29 35 30 28 32 31 31 36 41 41 46 37 23 11 11
27 18 13 6 10 17 18 19 34 14 10 18 23 33 35 38 36 33 20 20 18 34 39 38 51 47 50 47 52 49 40 36
Wind_Direction_500mb
175 174 173 172 169 170 171 169 164 163 160 159 157 153 146 138 132 119 114 109 106 102 99 96 91 89 91 92 87 81 77 71
179 179 178 176 175 174 176 175 171 171 169 165 165 162 153 149 138 132 126 121 114 109 101 95 89 87 90 87 84 76 69 61
187 184 184 183 184 180 181 180 178 176 175 173 172 171 160 154 148 146 140 133 122 117 109 103 97 94 85 78 68 65 58 48
193 193 189 188 188 188 189 189 186 181 181 179 180 175 171 160 153 151 153 150 142 134 128 122 113 86 67 35 6 6 24 24
198 199 197 194 193 194 195 196 195 192 191 188 185 182 180 169 160 157 151 144 150 155 156 157 158 202 280 289 304 321 335 341
202 204 202 199 200 201 202 202 201 201 201 197 195 191 187 183 175 172 161 151 150 155 158 170 176 205 257 280 289 294 308 311
206 207 207 206 206 208 210 211 211 210 209 207 204 200 194 194 189 186 182 171 173 175 168 172 179 140 112 257 286 291 295 293
212 211 211 212 213 214 215 215 216 216 215 214 212 210 207 204 202 200 196 189 184 189 170 161 162 120 105 124 325 328 314 301
222 219 217 217 217 219 218 220 223 223 222 223 221 219 217 213 213 213 211 199 190 187 187 170 187 206 143 126 269 309 310 314
228 221 220 221 222 225 227 227 229 229 230 231 230 230 227 223 221 222 220 211 204 213 218 226 249 264 260 252 264 276 300 303
226 222 224 227 229 233 236 236 236 235 233 233 232 233 232 230 226 228 227 224 223 233 248 243 253 271 274 271 271 276 292 288
235 231 231 234 238 241 245 245 241 242 240 237 237 238 238 238 236 237 238 238 237 248 244 255 260 272 281 280 279 279 287 291
242 243 243 246 251 253 257 253 250 248 247 245 243 244 246 249 248 248 249 243 239 243 247 253 260 269 274 277 277 273 274 280
253 255 256 255 255 257 260 264 257 253 255 253 253 252 252 260 253 250 246 238 231 235 242 251 251 265 267 263 256 259 260 268
261 258 260 264 261 258 260 264 264 264 261 263 262 253 252 257 258 255 256 256 250 249 248 255 255 266 267 266 261 261 262 267
259 257 261 264 261 259 274 278 274 277 275 272 270 263 254 251 248 248 251 256 254 253 259 259 263 266 267 265 267 266 269 273
263 264 266 272 266 260 262 281 295 296 291 283 275 267 264 270 268 260 264 261 252 256 265 270 262 271 266 266 259 259 270 288
25 346 316 273 262 255 248 273 296 290 277 262 267 268 285 277 273 270 258 251 257 266 270 275 275 275 275 271 279 255 267 272
77 69 55 331 283 265 271 282 296 265 20 14 14 341 311 322 293 267 277 216 220 276 271 278 274 271 258 255 277 297 265 260
Wind_Speed_850mb
55 50 46 41 38 35 32 29 27 26 26 24 23 23 22 21 21 22 23 24 24 24 24 24 23 25 25 25 26 27 28 29
54 50 47 43 39 35 32 29 28 28 27 26 24 23 22 21 20 19 19 19 21 21 19 18 16 17 18 16 14 15 16 19
52 51 47 43 39 35 33 31 29 28 27 25 24 23 21 20 19 17 17 15 16 16 16 14 11 9 9 9 10 10 11 11
55 52 49 46 41 35 32 30 30 28 26 24 23 21 19 18 17 16 15 14 12 12 12 10 8 3 3 3 6 6 8 9
58 56 53 49 46 41 37 33 29 26 26 25 24 22 20 18 17 15 15 14 12 11 11 9 7 4 4 5 5 8 10 10
61 62 59 53 47 43 39 35 31 30 28 26 25 24 22 18 17 16 15 15 13 12 11 10 8 5 5 9 9 9 10 12
63 65 60 54 49 45 40 38 37 35 33 31 28 25 22 21 19 17 16 14 12 10 9 7 6 5 1 4 9 11 11 14
58 61 58 56 52 50 47 45 44 41 37 35 30 26 25 24 22 20 18 15 12 10 8 7 6 4 2 1 3 7 10 14
53 52 57 60 59 57 55 50 47 43 40 37 32 30 30 26 24 22 20 18 17 15 11 8 5 5 4 3 2 5 12 15
45 50 60 60 61 61 58 53 50 44 40 36 34 35 32 28 25 23 20 23 21 17 14 11 12 12 12 11 11 8 12 18
41 47 53 55 59 59 57 56 52 48 41 41 40 38 35 32 28 26 24 25 24 20 18 19 19 23 23 17 18 18 16 18
44 47 52 52 55 52 52 56 56 49 48 44 42 40 37 34 30 29 29 27 25 25 26 25 25 27 23 21 22 21 18 20
47 50 49 50 52 51 53 53 56 56 53 48 45 41 38 34 32 31 29 26 28 32 30 31 23 23 23 22 23 25 25 26
49 53 51 46 46 48 56 54 55 55 53 51 46 43 35 30 30 29 28 27 26 29 36 34 24 26 25 29 29 27 30 31
45 50 49 45 42 38 41 45 50 51 47 50 48 40 35 29 26 32 31 32 30 33 33 30 28 26 28 29 34 36 33 33
39 43 47 48 48 41 33 35 38 39 42 43 42 40 39 41 37 39 36 33 32 35 34 33 32 33 36 34 38 36 34 31
22 24 29 36 36 36 28 21 24 31 37 37 38 45 48 42 45 46 30 30 29 31 35 35 38 37 43 41 38 24 16 18
8 11 7 4 6 12 21 8 10 16 21 17 17 23 26 32 34 29 35 30 28 32 31 31 36 41 41 46 37 23 11 11
27 18 13 6 10 17 18 19 34 14 10 18 23 33 35 38 36 33 20 20 18 34 39 38 51 47 50 47 52 49 40 36
Wind_Direction_850mb
175 174 173 172 169 170 171 169 164 163 160 159 157 153 146 138 132 119 114 109 106 102 99 96 91 89 91 92 87 81 77 71
179 179 178 176 175 174 176 175 171 171 169 165 165 162 153 149 138 132 126 121 114 109 101 95 89 87 90 87 84 76 69 61
187 184 184 183 184 180 181 180 178 176 175 173 172 171 160 154 148 146 140 133 122 117 109 103 97 94 85 78 68 65 58 48
193 193 189 188 188 188 189 189 186 181 181 179 180 175 171 160 153 151 153 150 142 134 128 122 113 86 67 35 6 6 24 24
198 199 197 194 193 194 195 196 195 192 191 188 185 182 180 169 160 157 151 144 150 155 156 157 158 202 280 289 304 321 335 341
202 204 202 199 200 201 202 202 201 201 201 197 195 191 187 183 175 172 161 151 150 155 158 170 176 205 257 280 289 294 308 311
206 207 207 206 206 208 210 211 211 210 209 207 204 200 194 194 189 186 182 171 173 175 168 172 179 140 112 257 286 291 295 293
212 211 211 212 213 214 215 215 216 216 215 214 212 210 207 204 202 200 196 189 184 189 170 161 162 120 105 124 325 328 314 301
222 219 217 217 217 219 218 220 223 223 222 223 221 219 217 213 213 213 211 199 190 187 187 170 187 206 143 126 269 309 310 314
228 221 220 221 222 225 227 227 229 229 230 231 230 230 227 223 221 222 220 211 204 213 218 226 249 264 260 252 264 276 300 303
226 222 224 227 229 233 236 236 236 235 233 233 232 233 232 230 226 228 227 224 223 233 248 243 253 271 274 271 271 276 292 288
235 231 231 234 238 241 245 245 241 242 240 237 237 238 238 238 236 237 238 238 237 248 244 255 260 272 281 280 279 279 287 291
242 243 243 246 251 253 257 253 250 248 247 245 243 244 246 249 248 248 249 243 239 243 247 253 260 269 274 277 277 273 274 280
253 255 256 255 255 257 260 264 257 253 255 253 253 252 252 260 253 250 246 238 231 235 242 251 251 265 267 263 256 259 260 268
261 258 260 264 261 258 260 264 264 264 261 263 262 253 252 257 258 255 256 256 250 249 248 255 255 266 267 266 261 261 262 267
259 257 261 264 261 259 274 278 274 277 275 272 270 263 254 251 248 248 251 256 254 253 259 259 263 266 267 265 267 266 269 273
263 264 266 272 266 260 262 281 295 296 291 283 275 267 264 270 268 260 264 261 252 256 265 270 262 271 266 266 259 259 270 288
25 346 316 273 262 255 248 273 296 290 277 262 267 268 285 277 273 270 258 251 257 266 270 275 275 275 275 271 279 255 267 272
77 69 55 331 283 265 271 282 296 265 20 14 14 341 311 322 293 267 277 216 220 276 271 278 274 271 258 255 277 297 265 260